Simultaneous Nadir Overpasses (SNOs) Predictions

Prediction of SNOs between GOES-17 and NOAA-19 Satellite Orbit:

Table of predicted SNOs for the next 14.0 days since TLE Epoch: 11/16/2019
Index Date Time (GOES-17) GOES-17 Lat,Lon NOAA-19 Lat,Lon Distance(km) Time Diff (sec)
1 11/17/2019 14:38:56 0.03,-137.21 0.49,-139.21 227.71 80
2 11/18/2019 14:24:38 0.03,-137.21 -0.19,-136.37 96.42 80
3 11/19/2019 14:12:58 0.02,-137.20 -0.82,-133.51 420.33 80
4 11/21/2019 02:48:21 -0.03,-137.17 -1.02,-141.34 476.33 80
5 11/22/2019 02:36:43 -0.03,-137.16 -0.32,-138.50 152.51 80
6 11/23/2019 02:22:24 -0.03,-137.15 0.32,-135.65 171.27 80
7 11/24/2019 02:10:44 -0.03,-137.14 0.96,-132.80 494.93 80
8 11/25/2019 14:46:08 0.04,-137.13 0.87,-140.63 400.04 80
9 11/26/2019 14:34:30 0.04,-137.12 0.18,-137.79 76.88 80
10 11/27/2019 14:20:10 0.04,-137.10 -0.46,-134.94 246.20 80




NCC Satellite Simultaneous Nadir Overpasses (SNOs) Prediction Service
